Year,Month,Day,Hour,Minute,Value (Times are PST for temperature in C)
2006,06,12,00,00,13.30
2006,06,12,00,01,13.30
2006,06,12,00,02,13.30
2006,06,12,00,03,13.30
2006,06,12,00,04,13.30
2006,06,12,00,05,13.30
2006,06,12,00,06,13.30
2006,06,12,00,07,13.30
2006,06,12,00,08,13.20
2006,06,12,00,09,13.20
2006,06,12,00,10,13.20
2006,06,12,00,11,13.20
2006,06,12,00,12,13.20
2006,06,12,00,13,13.20
2006,06,12,00,14,13.10
2006,06,12,00,15,13.10
2006,06,12,00,16,13.10
2006,06,12,00,17,13.10
2006,06,12,00,18,13.10
2006,06,12,00,19,13.00
2006,06,12,00,20,13.00
2006,06,12,00,21,12.90
2006,06,12,00,22,12.90
2006,06,12,00,23,12.90
2006,06,12,00,24,12.90
2006,06,12,00,25,12.80
2006,06,12,00,26,12.80
2006,06,12,00,27,12.80
2006,06,12,00,28,12.80
2006,06,12,00,29,12.80
2006,06,12,00,30,12.70
2006,06,12,00,31,12.70
2006,06,12,00,32,12.70
2006,06,12,00,33,12.70
2006,06,12,00,34,12.70
2006,06,12,00,35,12.70
2006,06,12,00,36,12.70
2006,06,12,00,37,12.60
2006,06,12,00,38,12.60
2006,06,12,00,39,12.60
2006,06,12,00,40,12.60
2006,06,12,00,41,12.60
2006,06,12,00,42,12.60
2006,06,12,00,43,12.50
2006,06,12,00,44,12.50
2006,06,12,00,45,12.50
2006,06,12,00,46,12.50
2006,06,12,00,47,12.50
2006,06,12,00,48,12.50
2006,06,12,00,49,12.50
2006,06,12,00,50,12.50
2006,06,12,00,51,12.50
2006,06,12,00,52,12.50
2006,06,12,00,53,12.50
2006,06,12,00,54,12.50
2006,06,12,00,55,12.50
2006,06,12,00,56,12.50
2006,06,12,00,57,12.40
2006,06,12,00,58,12.40
2006,06,12,00,59,12.40
2006,06,12,01,00,12.40
2006,06,12,01,01,12.40
2006,06,12,01,02,12.40
2006,06,12,01,03,12.40
2006,06,12,01,04,12.40
2006,06,12,01,05,12.40
2006,06,12,01,06,12.40
2006,06,12,01,07,12.40
2006,06,12,01,08,12.40
2006,06,12,01,09,12.40
2006,06,12,01,10,12.40
2006,06,12,01,11,12.40
2006,06,12,01,12,12.40
2006,06,12,01,13,12.40
2006,06,12,01,14,12.40
2006,06,12,01,15,12.30
2006,06,12,01,16,12.30
2006,06,12,01,17,12.30
2006,06,12,01,18,12.30
2006,06,12,01,19,12.30
2006,06,12,01,20,12.30
2006,06,12,01,21,12.30
2006,06,12,01,22,12.30
2006,06,12,01,23,12.30
2006,06,12,01,24,12.30
2006,06,12,01,25,12.30
2006,06,12,01,26,12.20
2006,06,12,01,27,12.20
2006,06,12,01,28,12.20
2006,06,12,01,29,12.20
2006,06,12,01,30,12.20
2006,06,12,01,31,12.20
2006,06,12,01,32,12.20
2006,06,12,01,33,12.20
2006,06,12,01,34,12.20
2006,06,12,01,35,12.20
2006,06,12,01,36,12.10
2006,06,12,01,37,12.10
2006,06,12,01,38,12.10
2006,06,12,01,39,12.10
2006,06,12,01,40,12.10
2006,06,12,01,41,12.10
2006,06,12,01,42,12.10
2006,06,12,01,43,12.00
2006,06,12,01,44,12.00
2006,06,12,01,45,12.00
2006,06,12,01,46,12.00
2006,06,12,01,47,12.00
2006,06,12,01,48,12.00
2006,06,12,01,49,12.00
2006,06,12,01,50,12.00
2006,06,12,01,51,12.00
2006,06,12,01,52,12.00
2006,06,12,01,53,12.00
2006,06,12,01,54,12.00
2006,06,12,01,55,12.00
2006,06,12,01,56,12.00
2006,06,12,01,57,12.00
2006,06,12,01,58,12.00
2006,06,12,01,59,12.00
2006,06,12,02,00,12.00
2006,06,12,02,01,12.00
2006,06,12,02,02,12.00
2006,06,12,02,03,12.00
2006,06,12,02,04,12.00
2006,06,12,02,05,11.90
2006,06,12,02,06,11.90
2006,06,12,02,07,11.90
2006,06,12,02,08,11.90
2006,06,12,02,09,11.90
2006,06,12,02,10,11.90
2006,06,12,02,11,11.90
2006,06,12,02,12,11.90
2006,06,12,02,13,12.00
2006,06,12,02,14,12.00
2006,06,12,02,15,12.00
2006,06,12,02,16,12.00
2006,06,12,02,17,12.00
2006,06,12,02,18,12.00
2006,06,12,02,19,12.00
2006,06,12,02,20,12.00
2006,06,12,02,21,12.00
2006,06,12,02,22,12.00
2006,06,12,02,23,12.00
2006,06,12,02,24,12.10
2006,06,12,02,25,12.10
2006,06,12,02,26,12.10
2006,06,12,02,27,12.10
2006,06,12,02,28,12.10
2006,06,12,02,29,12.10
2006,06,12,02,30,12.10
2006,06,12,02,31,12.10
2006,06,12,02,32,12.00
2006,06,12,02,33,12.00
2006,06,12,02,34,12.00
2006,06,12,02,35,12.00
2006,06,12,02,36,12.00
2006,06,12,02,37,12.00
2006,06,12,02,38,11.90
2006,06,12,02,39,11.90
2006,06,12,02,40,11.90
2006,06,12,02,41,11.90
2006,06,12,02,42,11.90
2006,06,12,02,43,11.90
2006,06,12,02,44,11.90
2006,06,12,02,45,11.90
2006,06,12,02,46,11.90
2006,06,12,02,47,11.90
2006,06,12,02,48,11.90
2006,06,12,02,49,11.90
2006,06,12,02,50,11.90
2006,06,12,02,51,11.80
2006,06,12,02,52,11.80
2006,06,12,02,53,11.80
2006,06,12,02,54,11.80
2006,06,12,02,55,11.80
2006,06,12,02,56,11.80
2006,06,12,02,57,11.80
2006,06,12,02,58,11.80
2006,06,12,02,59,11.80
2006,06,12,03,00,11.80
2006,06,12,03,01,11.80
2006,06,12,03,02,11.80
2006,06,12,03,03,11.80
2006,06,12,03,04,11.80
2006,06,12,03,05,11.70
2006,06,12,03,06,11.70
2006,06,12,03,07,11.70
2006,06,12,03,08,11.70
2006,06,12,03,09,11.70
2006,06,12,03,10,11.60
2006,06,12,03,11,11.60
2006,06,12,03,12,11.60
2006,06,12,03,13,11.60
2006,06,12,03,14,11.60
2006,06,12,03,15,11.50
2006,06,12,03,16,11.40
2006,06,12,03,17,11.40
2006,06,12,03,18,11.40
2006,06,12,03,19,11.40
2006,06,12,03,20,11.40
2006,06,12,03,21,11.40
2006,06,12,03,22,11.40
2006,06,12,03,23,11.40
2006,06,12,03,24,11.40
2006,06,12,03,25,11.40
2006,06,12,03,26,11.40
2006,06,12,03,27,11.40
2006,06,12,03,28,11.40
2006,06,12,03,29,11.40
2006,06,12,03,30,11.40
2006,06,12,03,31,11.40
2006,06,12,03,32,11.40
2006,06,12,03,33,11.40
2006,06,12,03,34,11.40
2006,06,12,03,35,11.40
2006,06,12,03,36,11.40
2006,06,12,03,37,11.40
2006,06,12,03,38,11.40
2006,06,12,03,39,11.40
2006,06,12,03,40,11.40
2006,06,12,03,41,11.40
2006,06,12,03,42,11.30
2006,06,12,03,43,11.30
2006,06,12,03,44,11.30
2006,06,12,03,45,11.30
2006,06,12,03,46,11.30
2006,06,12,03,47,11.30
2006,06,12,03,48,11.20
2006,06,12,03,49,11.20
2006,06,12,03,50,11.20
2006,06,12,03,51,11.20
2006,06,12,03,52,11.20
2006,06,12,03,53,11.20
2006,06,12,03,54,11.10
2006,06,12,03,55,11.10
2006,06,12,03,56,11.10
2006,06,12,03,57,11.10
2006,06,12,03,58,11.10
2006,06,12,03,59,11.10
2006,06,12,04,00,11.10
2006,06,12,04,01,11.10
2006,06,12,04,02,11.10
2006,06,12,04,03,11.10
2006,06,12,04,04,11.10
2006,06,12,04,05,11.10
2006,06,12,04,06,11.10
2006,06,12,04,07,11.10
2006,06,12,04,08,11.10
2006,06,12,04,09,11.10
2006,06,12,04,10,11.00
2006,06,12,04,11,10.90
2006,06,12,04,12,10.90
2006,06,12,04,13,10.90
2006,06,12,04,14,10.90
2006,06,12,04,15,10.90
2006,06,12,04,16,10.90
2006,06,12,04,17,10.90
2006,06,12,04,18,10.90
2006,06,12,04,19,11.00
2006,06,12,04,20,11.10
2006,06,12,04,21,11.10
2006,06,12,04,22,11.10
2006,06,12,04,23,11.10
2006,06,12,04,24,11.10
2006,06,12,04,25,11.10
2006,06,12,04,26,11.10
2006,06,12,04,27,11.10
2006,06,12,04,28,11.10
2006,06,12,04,29,11.10
2006,06,12,04,30,11.10
2006,06,12,04,31,11.10
2006,06,12,04,32,11.10
2006,06,12,04,33,11.10
2006,06,12,04,34,11.10
2006,06,12,04,35,11.10
2006,06,12,04,36,11.00
2006,06,12,04,37,10.90
2006,06,12,04,38,10.90
2006,06,12,04,39,10.90
2006,06,12,04,40,10.90
2006,06,12,04,41,10.90
2006,06,12,04,42,10.90
2006,06,12,04,43,10.90
2006,06,12,04,44,10.90
2006,06,12,04,45,10.90
2006,06,12,04,46,10.90
2006,06,12,04,47,10.90
2006,06,12,04,48,10.90
2006,06,12,04,49,10.90
2006,06,12,04,50,10.90
2006,06,12,04,51,10.80
2006,06,12,04,52,10.80
2006,06,12,04,53,10.80
2006,06,12,04,54,10.80
2006,06,12,04,55,10.80
2006,06,12,04,56,10.80
2006,06,12,04,57,10.80
2006,06,12,04,58,10.80
2006,06,12,04,59,10.70
2006,06,12,05,00,10.70
2006,06,12,05,01,10.70
2006,06,12,05,02,10.70
2006,06,12,05,03,10.70
2006,06,12,05,04,10.70
2006,06,12,05,05,10.60
2006,06,12,05,06,10.60
2006,06,12,05,07,10.60
2006,06,12,05,08,10.60
2006,06,12,05,09,10.60
2006,06,12,05,10,10.60
2006,06,12,05,11,10.60
2006,06,12,05,12,10.60
2006,06,12,05,13,10.60
2006,06,12,05,14,10.60
2006,06,12,05,15,10.60
2006,06,12,05,16,10.60
2006,06,12,05,17,10.60
2006,06,12,05,18,10.60
2006,06,12,05,19,10.60
2006,06,12,05,20,10.70
2006,06,12,05,21,10.70
2006,06,12,05,22,10.70
2006,06,12,05,23,10.80
2006,06,12,05,24,10.80
2006,06,12,05,25,10.80
2006,06,12,05,26,10.80
2006,06,12,05,27,10.80
2006,06,12,05,28,10.80
2006,06,12,05,29,10.80
2006,06,12,05,30,10.80
2006,06,12,05,31,10.80
2006,06,12,05,32,10.80
2006,06,12,05,33,10.80
2006,06,12,05,34,10.80
2006,06,12,05,35,10.80
2006,06,12,05,36,10.80
2006,06,12,05,37,10.80
2006,06,12,05,38,10.90
2006,06,12,05,39,10.90
2006,06,12,05,40,10.90
2006,06,12,05,41,10.90
2006,06,12,05,42,10.90
2006,06,12,05,43,10.90
2006,06,12,05,44,10.90
2006,06,12,05,45,10.90
2006,06,12,05,46,10.90
2006,06,12,05,47,10.90
2006,06,12,05,48,10.90
2006,06,12,05,49,10.90
2006,06,12,05,50,10.90
2006,06,12,05,51,10.90
2006,06,12,05,52,10.90
2006,06,12,05,53,10.90
2006,06,12,05,54,10.90
2006,06,12,05,55,10.90
2006,06,12,05,56,10.90
2006,06,12,05,57,10.90
2006,06,12,05,58,10.90
2006,06,12,05,59,10.90
2006,06,12,06,00,10.90
2006,06,12,06,01,10.90
2006,06,12,06,02,10.90
2006,06,12,06,03,10.90
2006,06,12,06,04,10.90
2006,06,12,06,05,10.90
2006,06,12,06,06,10.80
2006,06,12,06,07,10.80
2006,06,12,06,08,10.80
2006,06,12,06,09,10.80
2006,06,12,06,10,10.80
2006,06,12,06,11,10.80
2006,06,12,06,12,10.80
2006,06,12,06,13,10.80
2006,06,12,06,14,10.80
2006,06,12,06,15,10.80
2006,06,12,06,16,10.90
2006,06,12,06,17,10.90
2006,06,12,06,18,10.90
2006,06,12,06,19,10.90
2006,06,12,06,20,11.00
2006,06,12,06,21,11.10
2006,06,12,06,22,11.10
2006,06,12,06,23,11.10
2006,06,12,06,24,11.10
2006,06,12,06,25,11.20
2006,06,12,06,26,11.20
2006,06,12,06,27,11.30
2006,06,12,06,28,11.30
2006,06,12,06,29,11.40
2006,06,12,06,30,11.40
2006,06,12,06,31,11.40
2006,06,12,06,32,11.40
2006,06,12,06,33,11.50
2006,06,12,06,34,11.60
2006,06,12,06,35,11.60
2006,06,12,06,36,11.60
2006,06,12,06,37,11.60
2006,06,12,06,38,11.60
2006,06,12,06,39,11.60
2006,06,12,06,40,11.60
2006,06,12,06,41,11.70
2006,06,12,06,42,11.70
2006,06,12,06,43,11.70
2006,06,12,06,44,11.80
2006,06,12,06,45,11.80
2006,06,12,06,46,11.90
2006,06,12,06,47,11.90
2006,06,12,06,48,12.00
2006,06,12,06,49,12.00
2006,06,12,06,50,12.10
2006,06,12,06,51,12.20
2006,06,12,06,52,12.30
2006,06,12,06,53,12.40
2006,06,12,06,54,12.40
2006,06,12,06,55,12.50
2006,06,12,06,56,12.60
2006,06,12,06,57,12.70
2006,06,12,06,58,12.80
2006,06,12,06,59,12.90
2006,06,12,07,00,13.00
2006,06,12,07,01,13.10
2006,06,12,07,02,13.20
2006,06,12,07,03,13.20
2006,06,12,07,04,13.30
2006,06,12,07,05,13.50
2006,06,12,07,06,13.60
2006,06,12,07,07,13.60
2006,06,12,07,08,13.70
2006,06,12,07,09,13.80
2006,06,12,07,10,13.90
2006,06,12,07,11,14.00
2006,06,12,07,12,14.20
2006,06,12,07,13,14.40
2006,06,12,07,14,14.50
2006,06,12,07,15,14.70
2006,06,12,07,16,14.80
2006,06,12,07,17,15.00
2006,06,12,07,18,15.10
2006,06,12,07,19,15.20
2006,06,12,07,20,15.30
2006,06,12,07,21,15.30
2006,06,12,07,22,15.40
2006,06,12,07,23,15.40
2006,06,12,07,24,15.50
2006,06,12,07,25,15.60
2006,06,12,07,26,15.70
2006,06,12,07,27,15.70
2006,06,12,07,28,15.80
2006,06,12,07,29,15.90
2006,06,12,07,30,16.00
2006,06,12,07,31,16.10
2006,06,12,07,32,16.10
2006,06,12,07,33,16.20
2006,06,12,07,34,16.30
2006,06,12,07,35,16.40
2006,06,12,07,36,16.40
2006,06,12,07,37,16.60
2006,06,12,07,38,16.70
2006,06,12,07,39,16.70
2006,06,12,07,40,16.80
2006,06,12,07,41,16.80
2006,06,12,07,42,16.90
2006,06,12,07,43,17.00
2006,06,12,07,44,17.10
2006,06,12,07,45,17.20
2006,06,12,07,46,17.20
2006,06,12,07,47,17.30
2006,06,12,07,48,17.30
2006,06,12,07,49,17.30
2006,06,12,07,50,17.30
2006,06,12,07,51,17.30
2006,06,12,07,52,17.30
2006,06,12,07,53,17.30
2006,06,12,07,54,17.30
2006,06,12,07,55,17.30
2006,06,12,07,56,17.30
2006,06,12,07,57,17.30
2006,06,12,07,58,17.40
2006,06,12,07,59,17.40
2006,06,12,08,00,17.40
2006,06,12,08,01,17.40
2006,06,12,08,02,17.50
2006,06,12,08,03,17.50
2006,06,12,08,04,17.50
2006,06,12,08,05,17.40
2006,06,12,08,06,17.40
2006,06,12,08,07,17.40
2006,06,12,08,08,17.40
2006,06,12,08,09,17.30
2006,06,12,08,10,17.40
2006,06,12,08,11,17.40
2006,06,12,08,12,17.40
2006,06,12,08,13,17.50
2006,06,12,08,14,17.50
2006,06,12,08,15,17.50
2006,06,12,08,16,17.50
2006,06,12,08,17,17.50
2006,06,12,08,18,17.40
2006,06,12,08,19,17.40
2006,06,12,08,20,17.50
2006,06,12,08,21,17.50
2006,06,12,08,22,17.60
2006,06,12,08,23,17.60
2006,06,12,08,24,17.70
2006,06,12,08,25,17.80
2006,06,12,08,26,17.90
2006,06,12,08,27,17.90
2006,06,12,08,28,18.00
2006,06,12,08,29,18.20
2006,06,12,08,30,18.20
2006,06,12,08,31,18.20
2006,06,12,08,32,18.30
2006,06,12,08,33,18.30
2006,06,12,08,34,18.30
2006,06,12,08,35,18.30
2006,06,12,08,36,18.30
2006,06,12,08,37,18.20
2006,06,12,08,38,18.20
2006,06,12,08,39,18.20
2006,06,12,08,40,18.20
2006,06,12,08,41,18.20
2006,06,12,08,42,18.30
2006,06,12,08,43,18.30
2006,06,12,08,44,18.30
2006,06,12,08,45,18.30
2006,06,12,08,46,18.40
2006,06,12,08,47,18.40
2006,06,12,08,48,18.50
2006,06,12,08,49,18.60
2006,06,12,08,50,18.60
2006,06,12,08,51,18.70
2006,06,12,08,52,18.70
2006,06,12,08,53,18.60
2006,06,12,08,54,18.50
2006,06,12,08,55,18.50
2006,06,12,08,56,18.60
2006,06,12,08,57,18.60
2006,06,12,08,58,18.70
2006,06,12,08,59,18.80
2006,06,12,09,00,18.80
2006,06,12,09,01,18.90
2006,06,12,09,02,19.00
2006,06,12,09,03,19.10
2006,06,12,09,04,19.10
2006,06,12,09,05,19.10
2006,06,12,09,06,19.10
2006,06,12,09,07,19.10
2006,06,12,09,08,19.10
2006,06,12,09,09,19.10
2006,06,12,09,10,19.10
2006,06,12,09,11,19.10
2006,06,12,09,12,19.10
2006,06,12,09,13,19.20
2006,06,12,09,14,19.20
2006,06,12,09,15,19.20
2006,06,12,09,16,19.30
2006,06,12,09,17,19.40
2006,06,12,09,18,19.50
2006,06,12,09,19,19.60
2006,06,12,09,20,19.80
2006,06,12,09,21,19.90
2006,06,12,09,22,20.00
2006,06,12,09,23,20.10
2006,06,12,09,24,20.00
2006,06,12,09,25,20.00
2006,06,12,09,26,20.10
2006,06,12,09,27,20.00
2006,06,12,09,28,19.90
2006,06,12,09,29,19.80
2006,06,12,09,30,19.90
2006,06,12,09,31,19.90
2006,06,12,09,32,19.90
2006,06,12,09,33,20.10
2006,06,12,09,34,20.20
2006,06,12,09,35,20.20
2006,06,12,09,36,20.20
2006,06,12,09,37,20.20
2006,06,12,09,38,20.20
2006,06,12,09,39,20.20
2006,06,12,09,40,20.20
2006,06,12,09,41,20.30
2006,06,12,09,42,20.50
2006,06,12,09,43,20.50
2006,06,12,09,44,20.60
2006,06,12,09,45,20.70
2006,06,12,09,46,20.70
2006,06,12,09,47,20.70
2006,06,12,09,48,20.60
2006,06,12,09,49,20.60
2006,06,12,09,50,20.50
2006,06,12,09,51,20.50
2006,06,12,09,52,20.50
2006,06,12,09,53,20.50
2006,06,12,09,54,20.40
2006,06,12,09,55,20.50
2006,06,12,09,56,20.60
2006,06,12,09,57,20.60
2006,06,12,09,58,20.50
2006,06,12,09,59,20.60
2006,06,12,10,00,20.60
2006,06,12,10,01,20.60
2006,06,12,10,02,20.60
2006,06,12,10,03,20.60
2006,06,12,10,04,20.50
2006,06,12,10,05,20.50
2006,06,12,10,06,20.70
2006,06,12,10,07,20.80
2006,06,12,10,08,20.90
2006,06,12,10,09,21.00
2006,06,12,10,10,21.10
2006,06,12,10,11,21.20
2006,06,12,10,12,21.30
2006,06,12,10,13,21.40
2006,06,12,10,14,21.30
2006,06,12,10,15,21.30
2006,06,12,10,16,21.30
2006,06,12,10,17,21.40
2006,06,12,10,18,21.30
2006,06,12,10,19,21.20
2006,06,12,10,20,21.10
2006,06,12,10,21,20.90
2006,06,12,10,22,20.90
2006,06,12,10,23,20.90
2006,06,12,10,24,20.90
2006,06,12,10,25,21.00
2006,06,12,10,26,21.00
2006,06,12,10,27,21.00
2006,06,12,10,28,20.90
2006,06,12,10,29,21.00
2006,06,12,10,30,20.90
2006,06,12,10,31,20.90
2006,06,12,10,32,21.00
2006,06,12,10,33,21.10
2006,06,12,10,34,21.20
2006,06,12,10,35,21.20
2006,06,12,10,36,21.30
2006,06,12,10,37,21.30
2006,06,12,10,38,21.30
2006,06,12,10,39,21.30
2006,06,12,10,40,21.30
2006,06,12,10,41,21.40
2006,06,12,10,42,21.40
2006,06,12,10,43,21.50
2006,06,12,10,44,21.60
2006,06,12,10,45,21.50
2006,06,12,10,46,21.40
2006,06,12,10,47,21.40
2006,06,12,10,48,21.50
2006,06,12,10,49,21.60
2006,06,12,10,50,21.60
2006,06,12,10,51,21.60
2006,06,12,10,52,21.60
2006,06,12,10,53,21.60
2006,06,12,10,54,21.70
2006,06,12,10,55,21.70
2006,06,12,10,56,21.70
2006,06,12,10,57,21.70
2006,06,12,10,58,21.60
2006,06,12,10,59,21.60
2006,06,12,11,00,21.60
2006,06,12,11,01,21.70
2006,06,12,11,02,21.60
2006,06,12,11,03,21.80
2006,06,12,11,04,21.90
2006,06,12,11,05,22.00
2006,06,12,11,06,22.00
2006,06,12,11,07,22.00
2006,06,12,11,08,22.00
2006,06,12,11,09,22.00
2006,06,12,11,10,22.00
2006,06,12,11,11,22.10
2006,06,12,11,12,22.20
2006,06,12,11,13,22.20
2006,06,12,11,14,22.30
2006,06,12,11,15,22.20
2006,06,12,11,16,22.20
2006,06,12,11,17,22.20
2006,06,12,11,18,22.10
2006,06,12,11,19,22.00
2006,06,12,11,20,22.00
2006,06,12,11,21,22.10
2006,06,12,11,22,22.10
2006,06,12,11,23,22.00
2006,06,12,11,24,22.00
2006,06,12,11,25,22.00
2006,06,12,11,26,22.10
2006,06,12,11,27,22.10
2006,06,12,11,28,22.20
2006,06,12,11,29,22.20
2006,06,12,11,30,22.00
2006,06,12,11,31,22.00
2006,06,12,11,32,22.00
2006,06,12,11,33,21.80
2006,06,12,11,34,21.70
2006,06,12,11,35,21.70
2006,06,12,11,36,21.80
2006,06,12,11,37,21.80
2006,06,12,11,38,21.80
2006,06,12,11,39,21.70
2006,06,12,11,40,21.60
2006,06,12,11,41,21.70
2006,06,12,11,42,21.80
2006,06,12,11,43,21.90
2006,06,12,11,44,22.00
2006,06,12,11,45,21.90
2006,06,12,11,46,21.70
2006,06,12,11,47,21.60
2006,06,12,11,48,21.40
2006,06,12,11,49,21.50
2006,06,12,11,50,21.60
2006,06,12,11,51,21.70
2006,06,12,11,52,21.60
2006,06,12,11,53,21.60
2006,06,12,11,54,21.70
2006,06,12,11,55,21.80
2006,06,12,11,56,21.80
2006,06,12,11,57,21.80
2006,06,12,11,58,21.70
2006,06,12,11,59,21.70
2006,06,12,12,00,21.70
2006,06,12,12,01,21.80
2006,06,12,12,02,21.90
2006,06,12,12,03,22.00
2006,06,12,12,04,22.10
2006,06,12,12,05,22.20
2006,06,12,12,06,22.20
2006,06,12,12,07,22.10
2006,06,12,12,08,22.10
2006,06,12,12,09,22.10
2006,06,12,12,10,22.00
2006,06,12,12,11,22.10
2006,06,12,12,12,22.10
2006,06,12,12,13,22.00
2006,06,12,12,14,22.00
2006,06,12,12,15,22.00
2006,06,12,12,16,22.00
2006,06,12,12,17,22.10
2006,06,12,12,18,22.10
2006,06,12,12,19,22.10
2006,06,12,12,20,22.10
2006,06,12,12,21,22.00
2006,06,12,12,22,22.00
2006,06,12,12,23,22.00
2006,06,12,12,24,22.10
2006,06,12,12,25,22.20
2006,06,12,12,26,22.20
2006,06,12,12,27,22.10
2006,06,12,12,28,22.30
2006,06,12,12,29,22.40
2006,06,12,12,30,22.50
2006,06,12,12,31,22.60
2006,06,12,12,32,22.40
2006,06,12,12,33,22.40
2006,06,12,12,34,22.40
2006,06,12,12,35,22.50
2006,06,12,12,36,22.60
2006,06,12,12,37,22.70
2006,06,12,12,38,22.60
2006,06,12,12,39,22.60
2006,06,12,12,40,22.50
2006,06,12,12,41,22.40
2006,06,12,12,42,22.40
2006,06,12,12,43,22.50
2006,06,12,12,44,22.70
2006,06,12,12,45,22.80
2006,06,12,12,46,22.90
2006,06,12,12,47,22.90
2006,06,12,12,48,22.90
2006,06,12,12,49,23.00
2006,06,12,12,50,23.10
2006,06,12,12,51,23.10
2006,06,12,12,52,23.00
2006,06,12,12,53,22.90
2006,06,12,12,54,22.90
2006,06,12,12,55,22.90
2006,06,12,12,56,23.00
2006,06,12,12,57,23.10
2006,06,12,12,58,23.10
2006,06,12,12,59,23.10
2006,06,12,13,00,23.10
2006,06,12,13,01,23.20
2006,06,12,13,02,23.10
2006,06,12,13,03,23.20
2006,06,12,13,04,23.10
2006,06,12,13,05,23.10
2006,06,12,13,06,23.10
2006,06,12,13,07,23.10
2006,06,12,13,08,23.30
2006,06,12,13,09,23.30
2006,06,12,13,10,23.30
2006,06,12,13,11,23.20
2006,06,12,13,12,23.00
2006,06,12,13,13,22.80
2006,06,12,13,14,22.70
2006,06,12,13,15,22.70
2006,06,12,13,16,22.70
2006,06,12,13,17,22.70
2006,06,12,13,18,22.70
2006,06,12,13,19,22.70
2006,06,12,13,20,22.70
2006,06,12,13,21,22.60
2006,06,12,13,22,22.50
2006,06,12,13,23,22.50
2006,06,12,13,24,22.40
2006,06,12,13,25,22.50
2006,06,12,13,26,22.50
2006,06,12,13,27,22.40
2006,06,12,13,28,22.50
2006,06,12,13,29,22.50
2006,06,12,13,30,22.50
2006,06,12,13,31,22.50
2006,06,12,13,32,22.60
2006,06,12,13,33,22.70
2006,06,12,13,34,22.80
2006,06,12,13,35,23.00
2006,06,12,13,36,23.20
2006,06,12,13,37,23.40
2006,06,12,13,38,23.50
2006,06,12,13,39,23.40
2006,06,12,13,40,23.30
2006,06,12,13,41,23.30
2006,06,12,13,42,23.30
2006,06,12,13,43,23.10
2006,06,12,13,44,22.90
2006,06,12,13,45,22.90
2006,06,12,13,46,22.90
2006,06,12,13,47,22.90
2006,06,12,13,48,22.90
2006,06,12,13,49,22.90
2006,06,12,13,50,23.00
2006,06,12,13,51,23.00
2006,06,12,13,52,23.00
2006,06,12,13,53,23.10
2006,06,12,13,54,23.20
2006,06,12,13,55,23.30
2006,06,12,13,56,23.40
2006,06,12,13,57,23.40
2006,06,12,13,58,23.40
2006,06,12,13,59,23.40
2006,06,12,14,00,23.50
2006,06,12,14,01,23.60
2006,06,12,14,02,23.60
2006,06,12,14,03,23.60
2006,06,12,14,04,23.60
2006,06,12,14,05,23.60
2006,06,12,14,06,23.70
2006,06,12,14,07,23.70
2006,06,12,14,08,23.80
2006,06,12,14,09,23.90
2006,06,12,14,10,23.90
2006,06,12,14,11,23.80
2006,06,12,14,12,23.80
2006,06,12,14,13,23.70
2006,06,12,14,14,23.70
2006,06,12,14,15,23.60
2006,06,12,14,16,23.40
2006,06,12,14,17,23.30
2006,06,12,14,18,23.30
2006,06,12,14,19,23.20
2006,06,12,14,20,23.20
2006,06,12,14,21,23.30
2006,06,12,14,22,23.30
2006,06,12,14,23,23.30
2006,06,12,14,24,23.30
2006,06,12,14,25,23.40
2006,06,12,14,26,23.40
2006,06,12,14,27,23.40
2006,06,12,14,28,23.50
2006,06,12,14,29,23.60
2006,06,12,14,30,23.70
2006,06,12,14,31,23.80
2006,06,12,14,32,23.80
2006,06,12,14,33,23.80
2006,06,12,14,34,23.80
2006,06,12,14,35,23.70
2006,06,12,14,36,23.40
2006,06,12,14,37,23.00
2006,06,12,14,38,22.70
2006,06,12,14,39,22.40
2006,06,12,14,40,22.10
2006,06,12,14,41,21.80
2006,06,12,14,42,21.60
2006,06,12,14,43,21.40
2006,06,12,14,44,21.30
2006,06,12,14,45,21.20
2006,06,12,14,46,21.00
2006,06,12,14,47,20.90
2006,06,12,14,48,20.90
2006,06,12,14,49,20.90
2006,06,12,14,50,20.90
2006,06,12,14,51,20.90
2006,06,12,14,52,21.00
2006,06,12,14,53,20.90
2006,06,12,14,54,20.80
2006,06,12,14,55,20.70
2006,06,12,14,56,20.60
2006,06,12,14,57,20.60
2006,06,12,14,58,20.50
2006,06,12,14,59,20.50
2006,06,12,15,00,20.50
2006,06,12,15,01,20.60
2006,06,12,15,02,20.80
2006,06,12,15,03,20.90
2006,06,12,15,04,21.20
2006,06,12,15,05,21.30
2006,06,12,15,06,21.50
2006,06,12,15,07,21.60
2006,06,12,15,08,21.60
2006,06,12,15,09,21.60
2006,06,12,15,10,21.50
2006,06,12,15,11,21.30
2006,06,12,15,12,21.20
2006,06,12,15,13,21.20
2006,06,12,15,14,21.20
2006,06,12,15,15,21.30
2006,06,12,15,16,21.30
2006,06,12,15,17,21.30
2006,06,12,15,18,21.30
2006,06,12,15,19,21.30
2006,06,12,15,20,21.30
2006,06,12,15,21,21.20
2006,06,12,15,22,21.10
2006,06,12,15,23,21.00
2006,06,12,15,24,21.10
2006,06,12,15,25,21.10
2006,06,12,15,26,21.20
2006,06,12,15,27,21.20
2006,06,12,15,28,21.30
2006,06,12,15,29,21.30
2006,06,12,15,30,21.40
2006,06,12,15,31,21.50
2006,06,12,15,32,21.60
2006,06,12,15,33,21.60
2006,06,12,15,34,21.60
2006,06,12,15,35,21.60
2006,06,12,15,36,21.60
2006,06,12,15,37,21.50
2006,06,12,15,38,21.40
2006,06,12,15,39,21.40
2006,06,12,15,40,21.50
2006,06,12,15,41,21.60
2006,06,12,15,42,21.60
2006,06,12,15,43,21.60
2006,06,12,15,44,21.60
2006,06,12,15,45,21.60
2006,06,12,15,46,21.60
2006,06,12,15,47,21.60
2006,06,12,15,48,21.50
2006,06,12,15,49,21.40
2006,06,12,15,50,21.40
2006,06,12,15,51,21.40
2006,06,12,15,52,21.40
2006,06,12,15,53,21.40
2006,06,12,15,54,21.40
2006,06,12,15,55,21.40
2006,06,12,15,56,21.50
2006,06,12,15,57,21.40
2006,06,12,15,58,21.40
2006,06,12,15,59,21.30
2006,06,12,16,00,21.20
2006,06,12,16,01,21.10
2006,06,12,16,02,21.10
2006,06,12,16,03,21.00
2006,06,12,16,04,21.10
2006,06,12,16,05,21.10
2006,06,12,16,06,21.00
2006,06,12,16,07,21.00
2006,06,12,16,08,21.00
2006,06,12,16,09,20.90
2006,06,12,16,10,20.90
2006,06,12,16,11,20.90
2006,06,12,16,12,20.90
2006,06,12,16,13,20.90
2006,06,12,16,14,20.90
2006,06,12,16,15,20.90
2006,06,12,16,16,21.00
2006,06,12,16,17,21.00
2006,06,12,16,18,21.00
2006,06,12,16,19,21.00
2006,06,12,16,20,21.10
2006,06,12,16,21,21.00
2006,06,12,16,22,21.10
2006,06,12,16,23,21.10
2006,06,12,16,24,21.10
2006,06,12,16,25,21.10
2006,06,12,16,26,21.10
2006,06,12,16,27,21.00
2006,06,12,16,28,21.00
2006,06,12,16,29,21.00
2006,06,12,16,30,21.00
2006,06,12,16,31,21.00
2006,06,12,16,32,20.90
2006,06,12,16,33,20.90
2006,06,12,16,34,20.80
2006,06,12,16,35,20.70
2006,06,12,16,36,20.60
2006,06,12,16,37,20.50
2006,06,12,16,38,20.30
2006,06,12,16,39,20.20
2006,06,12,16,40,20.20
2006,06,12,16,41,20.10
2006,06,12,16,42,20.10
2006,06,12,16,43,20.10
2006,06,12,16,44,20.00
2006,06,12,16,45,19.90
2006,06,12,16,46,19.90
2006,06,12,16,47,19.90
2006,06,12,16,48,19.90
2006,06,12,16,49,19.80
2006,06,12,16,50,19.80
2006,06,12,16,51,19.80
2006,06,12,16,52,19.80
2006,06,12,16,53,19.80
2006,06,12,16,54,19.80
2006,06,12,16,55,19.80
2006,06,12,16,56,19.80
2006,06,12,16,57,19.80
2006,06,12,16,58,19.90
2006,06,12,16,59,19.90
2006,06,12,17,00,19.90
2006,06,12,17,01,19.90
2006,06,12,17,02,20.00
2006,06,12,17,03,20.10
2006,06,12,17,04,20.20
2006,06,12,17,05,20.30
2006,06,12,17,06,20.40
2006,06,12,17,07,20.50
2006,06,12,17,08,20.50
2006,06,12,17,09,20.60
2006,06,12,17,10,20.60
2006,06,12,17,11,20.70
2006,06,12,17,12,20.70
2006,06,12,17,13,20.80
2006,06,12,17,14,20.80
2006,06,12,17,15,20.90
2006,06,12,17,16,20.90
2006,06,12,17,17,21.00
2006,06,12,17,18,21.00
2006,06,12,17,19,21.10